| time (UTC) | temp F | wind direction | speed MPH | gust MPH | rain 1hr in | rain 24hr in | rain mn in | humidity % | barometer mb |
| 20260505210037 | 83 | 298 | 3.0 | 6.0 | 0.00 | 0.00 | 0.00 | 32 | 1005.8 |
| 20260505205535 | 83 | 289 | 2.0 | 3.0 | 0.00 | 0.00 | 0.00 | 34 | 1005.7 |
| 20260505205032 | 83 | 302 | 4.0 | 4.0 | 0.00 | 0.00 | 0.00 | 32 | 1005.7 |
| 20260505204529 | 82 | 320 | 5.0 | 8.0 | 0.00 | 0.00 | 0.00 | 32 | 1005.9 |
| 20260505204026 | 82 | 358 | 2.0 | 2.0 | 0.00 | 0.00 | 0.00 | 34 | 1005.8 |
| 20260505203523 | 83 | 212 | 3.0 | 3.0 | 0.00 | 0.00 | 0.00 | 33 | 1005.7 |
| 20260505203020 | 82 | 263 | 1.0 | 1.0 | 0.00 | 0.00 | 0.00 | 33 | 1005.8 |
| 20260505202516 | 83 | 343 | 1.0 | 1.0 | 0.00 | 0.00 | 0.00 | 33 | 1006.0 |
| 20260505202012 | 83 | 291 | 2.0 | 2.0 | 0.00 | 0.00 | 0.00 | 32 | 1005.7 |
| 20260505201510 | 84 | 207 | 5.0 | 11.0 | 0.00 | 0.00 | 0.00 | 33 | 1005.8 |
| 20260505201007 | 84 | 285 | 4.0 | 4.0 | 0.00 | 0.00 | 0.00 | 33 | 1006.1 |
| 20260505200504 | 84 | 253 | 1.0 | 2.0 | 0.00 | 0.00 | 0.00 | 30 | 1005.9 |
| 20260505200000 | 83 | 319 | 4.0 | 6.0 | 0.00 | 0.00 | 0.00 | 30 | 1006.1 |
| 20260505195457 | 84 | 290 | 1.0 | 1.0 | 0.00 | 0.00 | 0.00 | 31 | 1006.0 |
| 20260505194955 | 82 | 326 | 3.0 | 3.0 | 0.00 | 0.00 | 0.00 | 33 | 1006.3 |
| 20260505194452 | 82 | 293 | 5.0 | 6.0 | 0.00 | 0.00 | 0.00 | 33 | 1006.1 |
| 20260505193952 | 83 | 55 | 3.0 | 4.0 | 0.00 | 0.00 | 0.00 | 32 | 1006.2 |
| 20260505193450 | 84 | 279 | 2.0 | 4.0 | 0.00 | 0.00 | 0.00 | 34 | 1006.4 |
| 20260505192947 | 83 | 14 | 6.0 | 8.0 | 0.00 | 0.00 | 0.00 | 31 | 1006.2 |
| 20260505192445 | 83 | 296 | 3.0 | 4.0 | 0.00 | 0.00 | 0.00 | 32 | 1006.2 |
| 20260505191942 | 83 | 67 | 3.0 | 4.0 | 0.00 | 0.00 | 0.00 | 32 | 1006.3 |
| 20260505191441 | 81 | 327 | 6.0 | 10.0 | 0.00 | 0.00 | 0.00 | 34 | 1006.3 |
| 20260505190937 | 81 | 285 | 6.0 | 9.0 | 0.00 | 0.00 | 0.00 | 34 | 1006.1 |
| 20260505190432 | 82 | 50 | 3.0 | 3.0 | 0.00 | 0.00 | 0.00 | 33 | 1006.4 |
| 20260505185928 | 82 | 0 | 3.0 | 4.0 | 0.00 | 0.00 | 0.00 | 32 | 1006.5 |
| 20260505185426 | 82 | 122 | 2.0 | 3.0 | 0.00 | 0.00 | 0.00 | 35 | 1006.5 |
| 20260505184922 | 84 | 230 | 4.0 | 6.0 | 0.00 | 0.00 | 0.00 | 32 | 1006.6 |
| 20260505184419 | 84 | 196 | 6.0 | 7.0 | 0.00 | 0.00 | 0.00 | 31 | 1006.6 |
| 20260505183916 | 83 | 268 | 4.0 | 6.0 | 0.00 | 0.00 | 0.00 | 31 | 1006.9 |
| 20260505183413 | 83 | 27 | 5.0 | 6.0 | 0.00 | 0.00 | 0.00 | 31 | 1006.8 |
| 20260505182909 | 83 | 254 | 3.0 | 4.0 | 0.00 | 0.00 | 0.00 | 31 | 1007.2 |
| 20260505182406 | 83 | 255 | 3.0 | 3.0 | 0.00 | 0.00 | 0.00 | 32 | 1007.0 |
| 20260505181902 | 82 | 302 | 1.0 | 2.0 | 0.00 | 0.00 | 0.00 | 34 | 1007.0 |
| 20260505181400 | 81 | 352 | 2.0 | 3.0 | 0.00 | 0.00 | 0.00 | 33 | 1007.1 |
| 20260505180856 | 82 | 37 | 6.0 | 8.0 | 0.00 | 0.00 | 0.00 | 31 | 1007.3 |
| 20260505180353 | 83 | 260 | 3.0 | 4.0 | 0.00 | 0.00 | 0.00 | 31 | 1007.1 |
| 20260505175850 | 83 | 334 | 2.0 | 2.0 | 0.00 | 0.00 | 0.00 | 33 | 1007.0 |
| 20260505175346 | 82 | 296 | 1.0 | 1.0 | 0.00 | 0.00 | 0.00 | 37 | 1007.2 |
| 20260505174843 | 83 | 263 | 2.0 | 3.0 | 0.00 | 0.00 | 0.00 | 35 | 1007.3 |
| 20260505174340 | 83 | 253 | 1.0 | 1.0 | 0.00 | 0.00 | 0.00 | 32 | 1007.1 |
| 20260505173836 | 83 | 329 | 1.0 | 1.0 | 0.00 | 0.00 | 0.00 | 31 | 1007.4 |
| 20260505173332 | 82 | 327 | 2.0 | 3.0 | 0.00 | 0.00 | 0.00 | 33 | 1007.1 |
| 20260505172830 | 82 | 352 | 3.0 | 6.0 | 0.00 | 0.00 | 0.00 | 32 | 1007.4 |
| 20260505172327 | 82 | 139 | 4.0 | 4.0 | 0.00 | 0.00 | 0.00 | 33 | 1007.5 |
| 20260505171827 | 82 | 270 | 2.0 | 2.0 | 0.00 | 0.00 | 0.00 | 33 | 1007.5 |
| 20260505171324 | 81 | 303 | 2.0 | 6.0 | 0.00 | 0.00 | 0.00 | 33 | 1007.5 |
| 20260505170821 | 80 | 283 | 2.0 | 2.0 | 0.00 | 0.00 | 0.00 | 36 | 1007.8 |
| 20260505170318 | 80 | 336 | 3.0 | 3.0 | 0.00 | 0.00 | 0.00 | 38 | 1007.7 |
| 20260505165813 | 80 | 318 | 4.0 | 7.0 | 0.00 | 0.00 | 0.00 | 35 | 1007.8 |
| 20260505165309 | 80 | 308 | 5.0 | 6.0 | 0.00 | 0.00 | 0.00 | 36 | 1007.9 |
| 20260505164804 | 81 | 315 | 5.0 | 6.0 | 0.00 | 0.00 | 0.00 | 36 | 1008.1 |
| 20260505164302 | 81 | 289 | 4.0 | 6.0 | 0.00 | 0.00 | 0.00 | 34 | 1008.1 |
| 20260505163800 | 81 | 301 | 3.0 | 3.0 | 0.00 | 0.00 | 0.00 | 36 | 1008.3 |
| 20260505163258 | 81 | 191 | 4.0 | 7.0 | 0.00 | 0.00 | 0.00 | 38 | 1008.5 |
| 20260505162755 | 81 | 330 | 2.0 | 3.0 | 0.00 | 0.00 | 0.00 | 36 | 1008.5 |
| 20260505162252 | 81 | 353 | 4.0 | 8.0 | 0.00 | 0.00 | 0.00 | 38 | 1008.6 |
| 20260505161749 | 80 | 246 | 3.0 | 3.0 | 0.00 | 0.00 | 0.00 | 37 | 1008.6 |
| 20260505161247 | 80 | 342 | 4.0 | 4.0 | 0.00 | 0.00 | 0.00 | 37 | 1008.5 |
| 20260505160744 | 80 | 224 | 4.0 | 6.0 | 0.00 | 0.00 | 0.00 | 37 | 1008.5 |
| 20260505160242 | 79 | 287 | 2.0 | 3.0 | 0.00 | 0.00 | 0.00 | 38 | 1008.5 |
| 20260505153221 | 79 | 324 | 4.0 | 6.0 | 0.00 | 0.00 | 0.00 | 39 | 1008.6 |
| 20260505152718 | 78 | 134 | 3.0 | 3.0 | 0.00 | 0.00 | 0.00 | 40 | 1008.3 |
| 20260505152214 | 78 | 353 | 3.0 | 3.0 | 0.00 | 0.00 | 0.00 | 41 | 1008.5 |
| 20260505151709 | 78 | 48 | 1.0 | 1.0 | 0.00 | 0.00 | 0.00 | 42 | 1008.8 |
| 20260505151206 | 78 | 240 | 2.0 | 2.0 | 0.00 | 0.00 | 0.00 | 42 | 1008.8 |
| 20260505150702 | 77 | 286 | 2.0 | 2.0 | 0.00 | 0.00 | 0.00 | 43 | 1008.9 |
| 20260505150200 | 77 | 340 | 5.0 | 6.0 | 0.00 | 0.00 | 0.00 | 41 | 1008.9 |
| 20260505140633 | 72 | 57 | 2.0 | 2.0 | 0.00 | 0.00 | 0.00 | 51 | 1009.2 |
| 20260505140130 | 72 | 66 | 1.0 | 1.0 | 0.00 | 0.00 | 0.00 | 53 | 1009.2 |
| 20260505124543 | 67 | 195 | 0.0 | 1.0 | 0.00 | 0.00 | 0.00 | 58 | 1009.7 |
| 20260505124039 | 66 | 116 | 0.0 | 0.0 | 0.00 | 0.00 | 0.00 | 60 | 1009.8 |
| 20260505123536 | 66 | 59 | 0.0 | 1.0 | 0.00 | 0.00 | 0.00 | 58 | 1009.7 |
| 20260505123032 | 67 | 116 | 1.0 | 1.0 | 0.00 | 0.00 | 0.00 | 59 | 1009.8 |
| 20260505122529 | 66 | 70 | 0.0 | 1.0 | 0.00 | 0.00 | 0.00 | 58 | 1009.8 |
| 20260505122026 | 65 | 59 | 0.0 | 0.0 | 0.00 | 0.00 | 0.00 | 59 | 1009.5 |
| 20260505121523 | 64 | 87 | 0.0 | 0.0 | 0.00 | 0.00 | 0.00 | 62 | 1009.7 |
| 20260505121019 | 62 | 292 | 2.0 | 3.0 | 0.00 | 0.00 | 0.00 | 67 | 1009.7 |
| 20260505120516 | 61 | 153 | 0.0 | 0.0 | 0.00 | 0.00 | 0.00 | 74 | 1009.6 |
| 20260505120011 | 60 | 127 | 1.0 | 1.0 | 0.00 | 0.00 | 0.00 | 74 | 1009.5 |
| 20260505115506 | 59 | 102 | 1.0 | 1.0 | 0.00 | 0.00 | 0.00 | 78 | 1009.6 |
| 20260505115004 | 57 | 47 | 0.0 | 0.0 | 0.00 | 0.00 | 0.00 | 80 | 1009.6 |
| 20260505114501 | 56 | 186 | 0.0 | 1.0 | 0.00 | 0.00 | 0.00 | 83 | 1009.5 |
| 20260505113957 | 55 | 193 | 0.0 | 1.0 | 0.00 | 0.00 | 0.00 | 83 | 1009.7 |
| 20260505113453 | 55 | 214 | 0.0 | 0.0 | 0.00 | 0.00 | 0.00 | 83 | 1009.5 |
| 20260505112949 | 55 | 147 | 2.0 | 2.0 | 0.00 | 0.00 | 0.00 | 83 | 1009.4 |
| 20260505112447 | 54 | 223 | 0.0 | 1.0 | 0.00 | 0.00 | 0.00 | 85 | 1009.4 |
| 20260505111944 | 54 | 147 | 0.0 | 0.0 | 0.00 | 0.00 | 0.00 | 85 | 1009.2 |
| 20260505111443 | 53 | 173 | 0.0 | 0.0 | 0.00 | 0.00 | 0.00 | 87 | 1009.2 |
| 20260505110940 | 52 | 343 | 0.0 | 0.0 | 0.00 | 0.00 | 0.00 | 90 | 1008.9 |
| 20260505110437 | 51 | 126 | 1.0 | 1.0 | 0.00 | 0.00 | 0.00 | 92 | 1009.1 |
| 20260505101909 | 47 | 184 | 1.0 | 1.0 | 0.00 | 0.00 | 0.00 | 95 | 1009.0 |
| 20260505101409 | 47 | 195 | 0.0 | 0.0 | 0.00 | 0.00 | 0.00 | 94 | 1009.1 |
| 20260505100905 | 46 | 208 | 0.0 | 0.0 | 0.00 | 0.00 | 0.00 | 94 | 1008.9 |
| 20260505100401 | 47 | 90 | 0.0 | 0.0 | 0.00 | 0.00 | 0.00 | 94 | 1008.9 |
| 20260505095857 | 47 | 193 | 0.0 | 0.0 | 0.00 | 0.00 | 0.00 | 94 | 1008.6 |
| 20260505095355 | 47 | 101 | 0.0 | 0.0 | 0.00 | 0.00 | 0.00 | 94 | 1008.6 |
| 20260505094851 | 47 | 321 | 0.0 | 0.0 | 0.00 | 0.00 | 0.00 | 94 | 1008.6 |
| 20260505094348 | 48 | 174 | 0.0 | 0.0 | 0.00 | 0.00 | 0.00 | 94 | 1008.5 |
| 20260505093843 | 48 | 280 | 0.0 | 0.0 | 0.00 | 0.00 | 0.00 | 94 | 1008.3 |
| 20260505093341 | 47 | 273 | 0.0 | 0.0 | 0.00 | 0.00 | 0.00 | 93 | 1008.4 |
| 20260505092838 | 47 | 340 | 0.0 | 0.0 | 0.00 | 0.00 | 0.00 | 93 | 1008.4 |
| 20260505092336 | 48 | 335 | 0.0 | 0.0 | 0.00 | 0.00 | 0.00 | 93 | 1008.4 |
| 20260505091833 | 48 | 215 | 0.0 | 0.0 | 0.00 | 0.00 | 0.00 | 93 | 1008.4 |
| 20260505091331 | 48 | 249 | 0.0 | 0.0 | 0.00 | 0.00 | 0.00 | 92 | 1008.4 |
| 20260505090829 | 48 | 359 | 0.0 | 0.0 | 0.00 | 0.00 | 0.00 | 92 | 1008.6 |
| 20260505090327 | 49 | 276 | 0.0 | 0.0 | 0.00 | 0.00 | 0.00 | 92 | 1008.3 |
| 20260505085824 | 49 | 277 | 0.0 | 0.0 | 0.00 | 0.00 | 0.00 | 92 | 1008.8 |
| 20260505085322 | 49 | 155 | 0.0 | 0.0 | 0.00 | 0.00 | 0.00 | 92 | 1008.6 |
| 20260505084819 | 49 | 287 | 0.0 | 0.0 | 0.00 | 0.00 | 0.00 | 92 | 1008.4 |
| 20260505084318 | 49 | 57 | 0.0 | 0.0 | 0.00 | 0.00 | 0.00 | 92 | 1008.5 |
| 20260505083814 | 49 | 190 | 0.0 | 0.0 | 0.00 | 0.00 | 0.00 | 92 | 1008.4 |
| 20260505083312 | 49 | 278 | 0.0 | 0.0 | 0.00 | 0.00 | 0.00 | 91 | 1008.4 |
| 20260505082808 | 49 | 186 | 0.0 | 0.0 | 0.00 | 0.00 | 0.00 | 90 | 1008.4 |
| 20260505082305 | 50 | 186 | 0.0 | 0.0 | 0.00 | 0.00 | 0.00 | 90 | 1008.5 |
| 20260505081801 | 50 | 299 | 0.0 | 0.0 | 0.00 | 0.00 | 0.00 | 90 | 1008.4 |
| 20260505081258 | 50 | 164 | 0.0 | 0.0 | 0.00 | 0.00 | 0.00 | 91 | 1008.2 |
| 20260505080754 | 50 | 182 | 0.0 | 0.0 | 0.00 | 0.00 | 0.00 | 90 | 1008.3 |
| 20260505080250 | 50 | 70 | 0.0 | 0.0 | 0.00 | 0.00 | 0.00 | 89 | 1008.2 |
| 20260505075746 | 50 | 70 | 0.0 | 0.0 | 0.00 | 0.00 | 0.00 | 89 | 1008.1 |
| 20260505075244 | 51 | 80 | 0.0 | 0.0 | 0.00 | 0.00 | 0.00 | 88 | 1008.2 |
| 20260505074741 | 51 | 117 | 0.0 | 0.0 | 0.00 | 0.00 | 0.00 | 88 | 1008.1 |
| 20260505074238 | 51 | 72 | 0.0 | 0.0 | 0.00 | 0.00 | 0.00 | 87 | 1008.1 |
| 20260505073735 | 51 | 72 | 0.0 | 0.0 | 0.00 | 0.00 | 0.00 | 87 | 1008.1 |
| 20260505073233 | 52 | 108 | 0.0 | 0.0 | 0.00 | 0.00 | 0.00 | 87 | 1008.0 |
| 20260505072729 | 52 | 174 | 0.0 | 0.0 | 0.00 | 0.00 | 0.00 | 86 | 1007.9 |
| 20260505072225 | 53 | 299 | 0.0 | 0.0 | 0.00 | 0.00 | 0.00 | 85 | 1008.0 |
| 20260505071721 | 53 | 4 | 0.0 | 0.0 | 0.00 | 0.00 | 0.00 | 84 | 1008.0 |
| 20260505071219 | 53 | 184 | 0.0 | 0.0 | 0.00 | 0.00 | 0.00 | 84 | 1007.8 |
| 20260505070716 | 53 | 268 | 0.0 | 0.0 | 0.00 | 0.00 | 0.00 | 82 | 1007.8 |
| 20260505070212 | 54 | 181 | 0.0 | 0.0 | 0.00 | 0.00 | 0.00 | 82 | 1007.8 |
| 20260505065708 | 54 | 231 | 0.0 | 0.0 | 0.00 | 0.00 | 0.00 | 81 | 1008.0 |
| 20260505065205 | 54 | 213 | 0.0 | 0.0 | 0.00 | 0.00 | 0.00 | 81 | 1007.9 |
| 20260505064702 | 55 | 297 | 0.0 | 0.0 | 0.00 | 0.00 | 0.00 | 80 | 1008.1 |
| 20260505064200 | 55 | 297 | 0.0 | 0.0 | 0.00 | 0.00 | 0.00 | 80 | 1008.1 |
| 20260505063657 | 55 | 223 | 0.0 | 0.0 | 0.00 | 0.00 | 0.00 | 78 | 1008.2 |
| 20260505063153 | 55 | 197 | 0.0 | 0.0 | 0.00 | 0.00 | 0.00 | 79 | 1008.0 |
| 20260505062649 | 55 | 178 | 0.0 | 0.0 | 0.00 | 0.00 | 0.00 | 79 | 1008.1 |
| 20260505062147 | 55 | 311 | 0.0 | 0.0 | 0.00 | 0.00 | 0.00 | 78 | 1008.1 |
| 20260505061644 | 56 | 269 | 0.0 | 0.0 | 0.00 | 0.00 | 0.00 | 76 | 1008.3 |
| 20260505061142 | 55 | 187 | 0.0 | 0.0 | 0.00 | 0.00 | 0.00 | 76 | 1008.1 |
| 20260505060639 | 55 | 257 | 0.0 | 0.0 | 0.00 | 0.00 | 0.00 | 77 | 1008.2 |
| 20260505060136 | 55 | 275 | 0.0 | 0.0 | 0.00 | 0.00 | 0.00 | 77 | 1008.1 |
| 20260505055631 | 56 | 188 | 0.0 | 0.0 | 0.00 | 0.00 | 0.00 | 78 | 1008.4 |
| 20260505055128 | 56 | 187 | 0.0 | 0.0 | 0.00 | 0.00 | 0.00 | 77 | 1008.1 |
| 20260505054626 | 56 | 221 | 0.0 | 0.0 | 0.00 | 0.00 | 0.00 | 78 | 1008.3 |
| 20260505054124 | 57 | 190 | 0.0 | 0.0 | 0.00 | 0.00 | 0.00 | 76 | 1008.3 |
| 20260505053621 | 57 | 263 | 0.0 | 0.0 | 0.00 | 0.00 | 0.00 | 75 | 1008.3 |
| 20260505053117 | 57 | 264 | 0.0 | 0.0 | 0.00 | 0.00 | 0.00 | 75 | 1008.3 |
| 20260505052614 | 57 | 290 | 0.0 | 0.0 | 0.00 | 0.00 | 0.00 | 75 | 1008.2 |
| 20260505052112 | 57 | 299 | 0.0 | 0.0 | 0.00 | 0.00 | 0.00 | 74 | 1008.1 |
| 20260505051608 | 57 | 156 | 0.0 | 0.0 | 0.00 | 0.00 | 0.00 | 73 | 1008.3 |
| 20260505051106 | 57 | 229 | 0.0 | 0.0 | 0.00 | 0.00 | 0.00 | 71 | 1008.4 |
| 20260505050604 | 58 | 66 | 0.0 | 0.0 | 0.00 | 0.00 | 0.00 | 74 | 1008.3 |
| 20260505041532 | 59 | 197 | 0.0 | 0.0 | 0.00 | 0.00 | 0.00 | 67 | 1008.1 |
| 20260505041029 | 59 | 253 | 0.0 | 0.0 | 0.00 | 0.00 | 0.00 | 66 | 1008.0 |
| 20260505040526 | 59 | 225 | 0.0 | 0.0 | 0.00 | 0.00 | 0.00 | 66 | 1007.9 |
| 20260505040024 | 60 | 153 | 0.0 | 0.0 | 0.00 | 0.00 | 0.00 | 65 | 1007.7 |
| 20260505035519 | 60 | 280 | 0.0 | 0.0 | 0.00 | 0.00 | 0.00 | 62 | 1007.7 |
| 20260505035016 | 61 | 171 | 1.0 | 2.0 | 0.00 | 0.00 | 0.00 | 61 | 1007.6 |
| 20260505034512 | 61 | 186 | 1.0 | 1.0 | 0.00 | 0.00 | 0.00 | 61 | 1007.7 |
| 20260505034010 | 60 | 219 | 0.0 | 0.0 | 0.00 | 0.00 | 0.00 | 60 | 1007.7 |
| 20260505033507 | 60 | 194 | 0.0 | 0.0 | 0.00 | 0.00 | 0.00 | 61 | 1007.7 |
| 20260505033005 | 60 | 181 | 0.0 | 1.0 | 0.00 | 0.00 | 0.00 | 62 | 1007.7 |
| 20260505032502 | 61 | 190 | 0.0 | 0.0 | 0.00 | 0.00 | 0.00 | 60 | 1007.7 |
| 20260505031958 | 61 | 182 | 1.0 | 1.0 | 0.00 | 0.00 | 0.00 | 59 | 1007.7 |
| 20260505031455 | 62 | 183 | 2.0 | 2.0 | 0.00 | 0.00 | 0.00 | 59 | 1007.7 |
| 20260505030952 | 62 | 206 | 0.0 | 0.0 | 0.00 | 0.00 | 0.00 | 58 | 1007.8 |
| 20260505030448 | 62 | 173 | 1.0 | 2.0 | 0.00 | 0.00 | 0.00 | 57 | 1007.8 |
| 20260505025943 | 62 | 178 | 0.0 | 0.0 | 0.00 | 0.00 | 0.00 | 56 | 1007.8 |
| 20260505025441 | 61 | 230 | 0.0 | 0.0 | 0.00 | 0.00 | 0.00 | 58 | 1007.9 |
| 20260505024940 | 61 | 234 | 0.0 | 0.0 | 0.00 | 0.00 | 0.00 | 59 | 1007.9 |
| 20260505024437 | 60 | 58 | 0.0 | 1.0 | 0.00 | 0.00 | 0.00 | 60 | 1007.8 |
| 20260505023934 | 60 | 199 | 1.0 | 1.0 | 0.00 | 0.00 | 0.00 | 63 | 1007.7 |
| 20260505023431 | 59 | 212 | 1.0 | 1.0 | 0.00 | 0.00 | 0.00 | 65 | 1007.6 |
| 20260505022928 | 59 | 273 | 1.0 | 1.0 | 0.00 | 0.00 | 0.00 | 65 | 1007.6 |
| 20260505022426 | 59 | 143 | 0.0 | 0.0 | 0.00 | 0.00 | 0.00 | 64 | 1007.4 |
| 20260505021922 | 58 | 143 | 0.0 | 1.0 | 0.00 | 0.00 | 0.00 | 64 | 1007.6 |
| 20260505021419 | 58 | 143 | 0.0 | 0.0 | 0.00 | 0.00 | 0.00 | 69 | 1007.7 |
| 20260505020914 | 59 | 280 | 0.0 | 0.0 | 0.00 | 0.00 | 0.00 | 68 | 1007.6 |
| 20260505020410 | 59 | 191 | 1.0 | 1.0 | 0.00 | 0.00 | 0.00 | 67 | 1007.7 |
| 20260505015908 | 59 | 303 | 1.0 | 1.0 | 0.00 | 0.00 | 0.00 | 67 | 1007.9 |
| 20260505015405 | 59 | 169 | 0.0 | 1.0 | 0.00 | 0.00 | 0.00 | 68 | 1007.8 |
| 20260505014902 | 59 | 13 | 0.0 | 0.0 | 0.00 | 0.00 | 0.00 | 67 | 1007.7 |
| 20260505014358 | 60 | 190 | 0.0 | 0.0 | 0.00 | 0.00 | 0.00 | 66 | 1007.8 |
| 20260505013855 | 60 | 145 | 1.0 | 1.0 | 0.00 | 0.00 | 0.00 | 61 | 1007.6 |
| 20260505013352 | 60 | 183 | 0.0 | 0.0 | 0.00 | 0.00 | 0.00 | 60 | 1007.8 |
| 20260505012851 | 60 | 231 | 0.0 | 0.0 | 0.00 | 0.00 | 0.00 | 63 | 1007.7 |
| 20260505012348 | 60 | 242 | 0.0 | 0.0 | 0.00 | 0.00 | 0.00 | 59 | 1007.6 |
| 20260505011844 | 60 | 191 | 0.0 | 0.0 | 0.00 | 0.00 | 0.00 | 59 | 1007.5 |
| 20260505011341 | 61 | 153 | 2.0 | 2.0 | 0.00 | 0.00 | 0.00 | 61 | 1007.6 |
| 20260505010837 | 61 | 147 | 0.0 | 1.0 | 0.00 | 0.00 | 0.00 | 61 | 1007.6 |
| 20260505010333 | 61 | 250 | 0.0 | 0.0 | 0.00 | 0.00 | 0.00 | 57 | 1007.6 |
| 20260505005830 | 62 | 191 | 0.0 | 0.0 | 0.00 | 0.00 | 0.00 | 58 | 1007.5 |
| 20260505005326 | 62 | 186 | 0.0 | 0.0 | 0.00 | 0.00 | 0.00 | 55 | 1007.7 |
| 20260505004824 | 63 | 164 | 0.0 | 0.0 | 0.00 | 0.00 | 0.00 | 54 | 1007.4 |
| 20260505004320 | 63 | 164 | 0.0 | 0.0 | 0.00 | 0.00 | 0.00 | 54 | 1007.4 |
| 20260505003818 | 63 | 198 | 1.0 | 1.0 | 0.00 | 0.00 | 0.00 | 53 | 1007.3 |
| 20260505003315 | 64 | 190 | 0.0 | 0.0 | 0.00 | 0.00 | 0.00 | 52 | 1007.2 |
| 20260505002811 | 64 | 177 | 0.0 | 0.0 | 0.00 | 0.00 | 0.00 | 52 | 1007.1 |
| 20260505002308 | 65 | 199 | 0.0 | 0.0 | 0.00 | 0.00 | 0.00 | 51 | 1007.2 |
| 20260505001806 | 66 | 331 | 0.0 | 0.0 | 0.00 | 0.00 | 0.00 | 48 | 1007.1 |
| 20260505001303 | 66 | 203 | 1.0 | 1.0 | 0.00 | 0.00 | 0.00 | 47 | 1007.1 |
| 20260505000800 | 68 | 252 | 0.0 | 0.0 | 0.00 | 0.00 | 0.00 | 46 | 1006.9 |
| 20260505000258 | 68 | 38 | 2.0 | 2.0 | 0.00 | 0.00 | 0.00 | 45 | 1006.9 |
| 20260504235754 | 68 | 162 | 1.0 | 2.0 | 0.00 | 0.00 | 0.00 | 46 | 1006.7 |
| 20260504235250 | 69 | 354 | 2.0 | 2.0 | 0.00 | 0.00 | 0.00 | 42 | 1007.0 |
| 20260504234748 | 70 | 209 | 0.0 | 1.0 | 0.00 | 0.00 | 0.00 | 41 | 1006.8 |
| 20260504234245 | 70 | 1 | 6.0 | 7.0 | 0.00 | 0.00 | 0.00 | 41 | 1006.7 |
| 20260504233741 | 70 | 223 | 1.0 | 1.0 | 0.00 | 0.00 | 0.00 | 40 | 1006.8 |
| 20260504233237 | 71 | 252 | 0.0 | 0.0 | 0.00 | 0.00 | 0.00 | 40 | 1006.7 |
| 20260504232734 | 71 | 153 | 2.0 | 2.0 | 0.00 | 0.00 | 0.00 | 40 | 1006.7 |
| 20260504232231 | 72 | 313 | 1.0 | 1.0 | 0.00 | 0.00 | 0.00 | 40 | 1006.7 |
| 20260504231728 | 72 | 169 | 1.0 | 2.0 | 0.00 | 0.00 | 0.00 | 38 | 1006.8 |
| 20260504231224 | 72 | 54 | 2.0 | 3.0 | 0.00 | 0.00 | 0.00 | 37 | 1006.7 |
| 20260504230720 | 72 | 20 | 4.0 | 6.0 | 0.00 | 0.00 | 0.00 | 37 | 1006.6 |
| 20260504230219 | 73 | 334 | 1.0 | 1.0 | 0.00 | 0.00 | 0.00 | 38 | 1006.8 |
| 20260504225718 | 73 | 28 | 2.0 | 3.0 | 0.00 | 0.00 | 0.00 | 39 | 1006.6 |
| 20260504225214 | 73 | 268 | 1.0 | 1.0 | 0.00 | 0.00 | 0.00 | 39 | 1006.8 |
| 20260504224711 | 74 | 175 | 2.0 | 2.0 | 0.00 | 0.00 | 0.00 | 38 | 1006.5 |
| 20260504224208 | 74 | 323 | 0.0 | 1.0 | 0.00 | 0.00 | 0.00 | 35 | 1006.7 |
| 20260504223704 | 74 | 286 | 2.0 | 2.0 | 0.00 | 0.00 | 0.00 | 36 | 1006.8 |
| 20260504223200 | 74 | 206 | 1.0 | 1.0 | 0.00 | 0.00 | 0.00 | 37 | 1006.7 |
| 20260504222657 | 74 | 13 | 1.0 | 2.0 | 0.00 | 0.00 | 0.00 | 35 | 1006.6 |
| 20260504222154 | 74 | 277 | 1.0 | 1.0 | 0.00 | 0.00 | 0.00 | 38 | 1006.9 |
| 20260504221651 | 74 | 6 | 3.0 | 4.0 | 0.00 | 0.00 | 0.00 | 37 | 1006.9 |
| 20260504221148 | 74 | 39 | 3.0 | 3.0 | 0.00 | 0.00 | 0.00 | 36 | 1006.8 |
| 20260504220644 | 75 | 78 | 3.0 | 3.0 | 0.00 | 0.00 | 0.00 | 38 | 1006.9 |
| 20260504220142 | 75 | 87 | 1.0 | 1.0 | 0.00 | 0.00 | 0.00 | 35 | 1006.7 |
| 20260504215638 | 75 | 244 | 2.0 | 2.0 | 0.00 | 0.00 | 0.00 | 39 | 1006.9 |
| 20260504215136 | 75 | 280 | 1.0 | 1.0 | 0.00 | 0.00 | 0.00 | 36 | 1006.8 |
| 20260504214632 | 75 | 174 | 4.0 | 4.0 | 0.00 | 0.00 | 0.00 | 34 | 1007.1 |
| 20260504214128 | 75 | 148 | 2.0 | 3.0 | 0.00 | 0.00 | 0.00 | 36 | 1006.7 |
| 20260504213625 | 76 | 330 | 2.0 | 3.0 | 0.00 | 0.00 | 0.00 | 35 | 1006.7 |
| 20260504213122 | 76 | 299 | 0.0 | 0.0 | 0.00 | 0.00 | 0.00 | 33 | 1006.8 |
| 20260504212618 | 77 | 24 | 1.0 | 2.0 | 0.00 | 0.00 | 0.00 | 32 | 1006.8 |
| 20260504212115 | 77 | 316 | 7.0 | 9.0 | 0.00 | 0.00 | 0.00 | 31 | 1006.8 |
| 20260504211612 | 77 | 79 | 1.0 | 2.0 | 0.00 | 0.00 | 0.00 | 33 | 1006.7 |
| 20260504211109 | 77 | 350 | 0.0 | 1.0 | 0.00 | 0.00 | 0.00 | 30 | 1006.6 |
| 20260504210607 | 78 | 52 | 2.0 | 3.0 | 0.00 | 0.00 | 0.00 | 30 | 1006.6 |